• In Portugal
  • List of Countries
  • For 7 days
  • Water Temperature
  • Satellite Maps
  • Weather Map
  • Weather Widgets
  • user-avatar
    Login

    Hourly Weather Perth

    Today, 28 May, Monday

    Time Temperature Precipitation Wind Pressure Humidity
    00:00 +14°C° 0 mm 5 mps 763 mmHg 75%
    01:00 +14°C° 0 mm 4 mps 763 mmHg 75%
    02:00 +13°C° 0 mm 3 mps 764 mmHg 79%
    03:00 +13°C° 0 mm 3 mps 764 mmHg 78%
    04:00 +12°C° 0 mm 3 mps 764 mmHg 77%
    05:00 +12°C° 0 mm 3 mps 765 mmHg 75%
    06:00 +13°C° 0 mm 2 mps 765 mmHg 74%
    07:00 +14°C° 0 mm 2 mps 765 mmHg 73%
    08:00 +14°C° 0 mm 2 mps 766 mmHg 72%
    09:00 +15°C° 0 mm 2 mps 766 mmHg 65%
    10:00 +17°C° 0 mm 2 mps 766 mmHg 58%
    11:00 +19°C° 0 mm 2 mps 766 mmHg 51%
    12:00 +19°C° 0.1 mm 3 mps 766 mmHg 51%
    13:00 +19°C° 0.1 mm 3 mps 766 mmHg 51%
    14:00 +19°C° 0.1 mm 3 mps 766 mmHg 51%
    15:00 +19°C° 0.1 mm 3 mps 766 mmHg 56%
    16:00 +18°C° 0.1 mm 2 mps 766 mmHg 60%
    17:00 +17°C° 0.1 mm 2 mps 766 mmHg 64%
    18:00 +16°C° 0 mm 2 mps 767 mmHg 69%
    19:00 +15°C° 0 mm 1 mps 767 mmHg 73%
    20:00 +14°C° 0 mm 1 mps 767 mmHg 78%
    21:00 +14°C° 0 mm 1 mps 767 mmHg 80%
    22:00 +14°C° 0 mm 1 mps 767 mmHg 81%
    23:00 +14°C° 0 mm 1 mps 768 mmHg 83%

    Tomorrow, 29 May, Tuesday

    Time Temperature Precipitation Wind Pressure Humidity
    00:00 +13°C° 0 mm 1 mps 767 mmHg 83%
    01:00 +13°C° 0 mm 1 mps 767 mmHg 83%
    02:00 +13°C° 0 mm 1 mps 767 mmHg 83%
    03:00 +13°C° 0 mm 2 mps 767 mmHg 83%
    04:00 +13°C° 0 mm 2 mps 767 mmHg 83%
    05:00 +13°C° 0 mm 2 mps 767 mmHg 84%
    06:00 +13°C° 0 mm 2 mps 767 mmHg 82%
    07:00 +13°C° 0 mm 2 mps 768 mmHg 80%
    08:00 +12°C° 0 mm 3 mps 768 mmHg 79%
    09:00 +14°C° 0 mm 3 mps 768 mmHg 69%
    10:00 +17°C° 0 mm 3 mps 768 mmHg 59%
    11:00 +19°C° 0 mm 3 mps 768 mmHg 49%
    12:00 +20°C° 0 mm 3 mps 767 mmHg 46%
    13:00 +21°C° 0 mm 3 mps 767 mmHg 42%
    14:00 +21°C° 0 mm 3 mps 766 mmHg 39%
    15:00 +20°C° 0 mm 2 mps 766 mmHg 42%
    16:00 +20°C° 0 mm 2 mps 766 mmHg 45%
    17:00 +20°C° 0 mm 1 mps 766 mmHg 47%
    18:00 +19°C° 0 mm 1 mps 767 mmHg 50%
    19:00 +18°C° 0 mm 1 mps 767 mmHg 52%
    20:00 +16°C° 0 mm 1 mps 767 mmHg 54%
    21:00 +15°C° 0 mm 2 mps 767 mmHg 53%
    22:00 +15°C° 0 mm 2 mps 767 mmHg 53%
    23:00 +13°C° 0 mm 3 mps 767 mmHg 52%

    Day after tomorrow, 30 May, Wednesday

    Time Temperature Precipitation Wind Pressure Humidity
    00:00 +13°C° 0 mm 3 mps 766 mmHg 51%
    01:00 +13°C° 0 mm 3 mps 766 mmHg 50%
    02:00 +13°C° 0 mm 4 mps 766 mmHg 49%
    03:00 +13°C° 0 mm 4 mps 765 mmHg 48%
    04:00 +12°C° 0 mm 4 mps 765 mmHg 47%
    05:00 +12°C° 0 mm 4 mps 765 mmHg 46%
    06:00 +12°C° 0 mm 4 mps 765 mmHg 44%
    07:00 +12°C° 0 mm 5 mps 765 mmHg 43%
    08:00 +13°C° 0 mm 5 mps 765 mmHg 41%
    09:00 +15°C° 0 mm 5 mps 764 mmHg 38%
    10:00 +17°C° 0 mm 5 mps 764 mmHg 34%
    11:00 +20°C° 0 mm 5 mps 763 mmHg 31%
    12:00 +21°C° 0 mm 5 mps 763 mmHg 30%
    13:00 +22°C° 0 mm 5 mps 762 mmHg 29%
    14:00 +23°C° 0 mm 4 mps 761 mmHg 28%
    15:00 +22°C° 0 mm 3 mps 761 mmHg 32%
    16:00 +21°C° 0 mm 3 mps 760 mmHg 37%
    17:00 +20°C° 0 mm 2 mps 760 mmHg 41%
    18:00 +19°C° 0 mm 2 mps 760 mmHg 44%
    19:00 +19°C° 0 mm 1 mps 760 mmHg 46%
    20:00 +18°C° 0 mm 1 mps 760 mmHg 49%
    21:00 +16°C° 0 mm 2 mps 760 mmHg 50%
    22:00 +16°C° 0 mm 2 mps 760 mmHg 50%
    23:00 +16°C° 0 mm 2 mps 760 mmHg 51%

    31 May, Thursday

    Time Temperature Precipitation Wind Pressure Humidity
    00:00 +14°C° 0 mm 3 mps 760 mmHg 51%
    01:00 +14°C° 0 mm 3 mps 759 mmHg 52%
    02:00 +14°C° 0 mm 3 mps 759 mmHg 52%
    03:00 +14°C° 0 mm 3 mps 759 mmHg 54%
    04:00 +14°C° 0 mm 4 mps 759 mmHg 56%
    05:00 +14°C° 0 mm 4 mps 759 mmHg 57%
    06:00 +15°C° 0 mm 4 mps 759 mmHg 61%
    07:00 +16°C° 0 mm 3 mps 759 mmHg 65%
    08:00 +17°C° 0 mm 3 mps 760 mmHg 70%
    09:00 +18°C° 0.2 mm 4 mps 760 mmHg 68%
    10:00 +20°C° 0.2 mm 5 mps 760 mmHg 67%
    11:00 +21°C° 0.2 mm 5 mps 760 mmHg 66%
    12:00 +20°C° 1.2 mm 5 mps 760 mmHg 70%
    13:00 +20°C° 1.2 mm 5 mps 759 mmHg 75%
    14:00 +19°C° 1.2 mm 5 mps 759 mmHg 80%
    15:00 +18°C° 0.9 mm 4 mps 759 mmHg 81%
    16:00 +18°C° 0.9 mm 4 mps 760 mmHg 81%
    17:00 +18°C° 0.9 mm 4 mps 760 mmHg 82%
    18:00 +17°C° 0 mm 3 mps 761 mmHg 83%
    19:00 +16°C° 0 mm 3 mps 761 mmHg 84%
    20:00 +14°C° 0 mm 3 mps 762 mmHg 85%
    21:00 +15°C° 0 mm 2 mps 762 mmHg 84%
    22:00 +15°C° 0 mm 2 mps 762 mmHg 84%
    23:00 +14°C° 0 mm 2 mps 763 mmHg 83%

    1 June, Friday

    Time Temperature Precipitation Wind Pressure Humidity
    00:00 +14°C° 0 mm 2 mps 763 mmHg 83%
    01:00 +14°C° 0 mm 2 mps 763 mmHg 82%
    02:00 +13°C° 0 mm 1 mps 763 mmHg 82%
    03:00 +13°C° 0 mm 1 mps 763 mmHg 83%
    04:00 +13°C° 0 mm 2 mps 763 mmHg 83%
    05:00 +13°C° 0 mm 2 mps 764 mmHg 84%
    06:00 +13°C° 0.1 mm 2 mps 764 mmHg 84%
    07:00 +13°C° 0.1 mm 2 mps 765 mmHg 84%
    08:00 +13°C° 0.1 mm 2 mps 765 mmHg 84%
    09:00 +15°C° 0 mm 2 mps 765 mmHg 76%
    10:00 +16°C° 0 mm 2 mps 765 mmHg 69%
    11:00 +18°C° 0 mm 2 mps 765 mmHg 62%
    12:00 +18°C° 0 mm 2 mps 765 mmHg 59%
    13:00 +19°C° 0 mm 2 mps 765 mmHg 56%
    14:00 +19°C° 0 mm 2 mps 764 mmHg 53%
    15:00 +18°C° 0 mm 2 mps 764 mmHg 55%
    16:00 +17°C° 0 mm 2 mps 765 mmHg 58%
    17:00 +17°C° 0 mm 2 mps 765 mmHg 60%
    18:00 +15°C° 0 mm 2 mps 765 mmHg 64%
    19:00 +14°C° 0 mm 2 mps 766 mmHg 68%
    20:00 +13°C° 0 mm 2 mps 766 mmHg 72%
    21:00 +13°C° 0 mm 2 mps 766 mmHg 73%
    22:00 +11°C° 0 mm 3 mps 766 mmHg 74%
    23:00 +11°C° 0 mm 3 mps 767 mmHg 75%

    2 June, Saturday

    Time Temperature Precipitation Wind Pressure Humidity
    00:00 +11°C° 0 mm 3 mps 767 mmHg 76%
    01:00 +10°C° 0 mm 3 mps 766 mmHg 77%
    02:00 +10°C° 0 mm 3 mps 766 mmHg 78%
    03:00 +10°C° 0 mm 3 mps 766 mmHg 79%
    04:00 +10°C° 0 mm 3 mps 766 mmHg 80%
    05:00 +10°C° 0 mm 3 mps 766 mmHg 81%
    06:00 +10°C° 0 mm 3 mps 767 mmHg 79%
    07:00 +10°C° 0 mm 3 mps 767 mmHg 78%
    08:00 +10°C° 0 mm 3 mps 767 mmHg 77%
    09:00 +13°C° 0 mm 3 mps 767 mmHg 67%
    10:00 +16°C° 0 mm 3 mps 767 mmHg 57%
    11:00 +18°C° 0 mm 3 mps 767 mmHg 47%
    12:00 +19°C° 0 mm 3 mps 767 mmHg 43%
    13:00 +20°C° 0 mm 3 mps 766 mmHg 38%
    14:00 +21°C° 0 mm 3 mps 765 mmHg 34%
    15:00 +20°C° 0 mm 3 mps 766 mmHg 37%
    16:00 +19°C° 0 mm 3 mps 766 mmHg 41%
    17:00 +18°C° 0 mm 3 mps 766 mmHg 44%
    18:00 +17°C° 0 mm 3 mps 766 mmHg 46%
    19:00 +16°C° 0 mm 3 mps 766 mmHg 47%
    20:00 +14°C° 0 mm 4 mps 767 mmHg 49%
    21:00 +14°C° 0 mm 4 mps 766 mmHg 51%
    22:00 +13°C° 0 mm 4 mps 766 mmHg 52%
    23:00 +13°C° 0 mm 4 mps 766 mmHg 54%
    Show more